Pine River, MN

5:22 AM CDT on July 23, 2017 (GMT -0500)
Pine River Regional

Weather History for KPWC - November, 2012

Change the Weather History Date:

Sunday, November 18, 2012

  Actual Average Record
Temperature  
Mean Temperature 44 °F -  
Max Temperature 51 °F 34 °F 55 °F (2001)
Min Temperature 37 °F 19 °F 3 °F (2014)
Degree Days  
Heating Degree Days 21    
Moisture  
Dew Point 32 °F    
Average Humidity 64    
Maximum Humidity 75    
Minimum Humidity 47    
Precipitation  
Precipitation 0.00 in - - ()
Sea Level Pressure  
Sea Level Pressure 30.06 in    
Wind  
Wind Speed 8 mph (SSE)    
Max Wind Speed 15 mph    
Max Gust Speed 20 mph    
Visibility 10 miles    
Events      
Averages and records for this station are not official NWS values.
T = Trace of Precipitation, MM = Missing Value Source: NWS Daily Summary

Daily Weather History Graph

Daily Weather History Graph

Search for Another Location

Airport or City:

Trip Planner

Search our weather history database for the weather conditions in past years. The results will help you decide how hot, cold, wet, or windy it might be!

Date:

Astronomy

Nov. 18, 2012 Rise Set
Actual Time 7:25 AM CST 4:40 PM CST
Civil Twilight 6:51 AM CST 5:13 PM CST
Nautical Twilight 6:14 AM CST 5:50 PM CST
Astronomical Twilight 5:38 AM CST 6:26 PM CST
Moon 11:48 AM CST (11/18) 10:06 PM CST (11/18)
Length of Visible Light 10h 21m
Length of Day
9h 15m
Waxing Crescent, 30% of the Moon is Illuminated
Nov 18
Waxing Crescent
Nov 20
First Quarter
Nov 28
Full
Dec 6
Last Quarter
Dec 13
New

Hourly Weather History & Observations

Time (CST) Temp. Windchill Dew Point Humidity Pressure Visibility Wind Dir Wind Speed Gust Speed Precip Events Conditions
12:12 AM 44.6 °F 40.2 °F 33.8 °F 66% 30.12 in 10.0 mi SSE 8.1 mph - N/A   Clear
12:33 AM 44.6 °F 40.2 °F 33.8 °F 66% 30.12 in 10.0 mi SSE 8.1 mph - N/A   Clear
12:53 AM 44.6 °F 40.2 °F 33.8 °F 66% 30.11 in 10.0 mi SSE 8.1 mph - N/A   Scattered Clouds
1:12 AM 44.6 °F 40.2 °F 33.8 °F 66% 30.11 in 10.0 mi SSE 8.1 mph - N/A   Scattered Clouds
1:33 AM 44.6 °F 39.7 °F 33.8 °F 66% 30.11 in 10.0 mi SSE 9.2 mph - N/A   Scattered Clouds
1:52 AM 44.6 °F 39.7 °F 33.8 °F 66% 30.11 in 10.0 mi SSE 9.2 mph - N/A   Clear
2:12 AM 44.6 °F 39.2 °F 33.8 °F 66% 30.11 in 10.0 mi SSE 10.4 mph - N/A   Scattered Clouds
2:33 AM 44.6 °F 39.7 °F 33.8 °F 66% 30.11 in 10.0 mi SSE 9.2 mph - N/A   Scattered Clouds
2:52 AM 44.6 °F 39.7 °F 32.0 °F 61% 30.10 in 10.0 mi SSE 9.2 mph - N/A   Clear
3:12 AM 42.8 °F 38.0 °F 32.0 °F 66% 30.10 in 10.0 mi SSE 8.1 mph - N/A   Scattered Clouds
3:32 AM 41.0 °F 36.4 °F 32.0 °F 70% 30.10 in 10.0 mi SSE 6.9 mph - N/A   Scattered Clouds
3:53 AM 41.0 °F 35.8 °F 32.0 °F 70% 30.09 in 10.0 mi SSE 8.1 mph - N/A   Clear
4:13 AM 41.0 °F 35.8 °F 32.0 °F 70% 30.09 in 10.0 mi SSE 8.1 mph - N/A   Clear
4:33 AM 41.0 °F 35.8 °F 32.0 °F 70% 30.09 in 10.0 mi SE 8.1 mph - N/A   Clear
4:53 AM 41.0 °F 36.4 °F 32.0 °F 70% 30.09 in 10.0 mi SSE 6.9 mph - N/A   Clear
5:12 AM 39.2 °F 34.2 °F 32.0 °F 75% 30.09 in 10.0 mi SSE 6.9 mph - N/A   Clear
5:32 AM 39.2 °F 33.6 °F 30.2 °F 70% 30.09 in 10.0 mi SSE 8.1 mph - N/A   Clear
5:51 AM 39.2 °F 34.2 °F 32.0 °F 75% 30.09 in 10.0 mi SE 6.9 mph - N/A   Clear
6:13 AM 39.2 °F 33.6 °F 30.2 °F 70% 30.08 in 10.0 mi SE 8.1 mph - N/A   Clear
6:33 AM 39.2 °F 34.2 °F 32.0 °F 75% 30.08 in 10.0 mi SE 6.9 mph - N/A   Clear
6:53 AM 37.4 °F 32.8 °F 30.2 °F 75% 30.08 in 10.0 mi SE 5.8 mph - N/A   Clear
7:13 AM 39.2 °F 33.6 °F 32.0 °F 75% 30.08 in 10.0 mi SE 8.1 mph - N/A   Clear
7:32 AM 39.2 °F 34.2 °F 32.0 °F 75% 30.08 in 10.0 mi SSE 6.9 mph - N/A   Clear
7:53 AM 39.2 °F 34.2 °F 32.0 °F 75% 30.08 in 10.0 mi SE 6.9 mph - N/A   Clear
8:12 AM 39.2 °F 35.0 °F 32.0 °F 75% 30.08 in 10.0 mi SSE 5.8 mph - N/A   Clear
8:33 AM 41.0 °F 36.4 °F 32.0 °F 70% 30.08 in 10.0 mi SE 6.9 mph - N/A   Clear
8:52 AM 42.8 °F 38.0 °F 32.0 °F 66% 30.08 in 10.0 mi SSE 8.1 mph - N/A   Clear
9:12 AM 44.6 °F 39.2 °F 32.0 °F 61% 30.07 in 10.0 mi SSE 10.4 mph - N/A   Clear
9:33 AM 44.6 °F 38.8 °F 30.2 °F 57% 30.07 in 10.0 mi SSE 11.5 mph - N/A   Clear
9:53 AM 44.6 °F 38.1 °F 30.2 °F 57% 30.07 in 10.0 mi SSE 13.8 mph 18.4 mph N/A   Clear
10:13 AM 46.4 °F 41.1 °F 32.0 °F 57% 30.07 in 10.0 mi South 11.5 mph 19.6 mph N/A   Clear
10:33 AM 46.4 °F 40.7 °F 30.2 °F 53% 30.07 in 10.0 mi South 12.7 mph 17.3 mph N/A   Clear
10:52 AM 46.4 °F 40.1 °F 30.2 °F 53% 30.07 in 10.0 mi South 15.0 mph - N/A   Clear
11:12 AM 48.2 °F - 32.0 °F 54% 30.06 in 10.0 mi South 10.4 mph 18.4 mph N/A   Clear
11:33 AM 48.2 °F - 32.0 °F 54% 30.06 in 10.0 mi SSE 10.4 mph - N/A   Clear
11:53 AM 48.2 °F - 32.0 °F 54% 30.05 in 10.0 mi SSE 11.5 mph 18.4 mph N/A   Clear
12:12 PM 48.2 °F - 32.0 °F 54% 30.05 in 10.0 mi SSE 13.8 mph - N/A   Clear
12:33 PM 50.0 °F - 32.0 °F 50% 30.05 in 10.0 mi South 12.7 mph 19.6 mph N/A   Clear
12:53 PM 50.0 °F - 32.0 °F 50% 30.04 in 10.0 mi SSE 9.2 mph 17.3 mph N/A   Clear
1:12 PM 51.8 °F - 32.0 °F 47% 30.04 in 10.0 mi SE 12.7 mph - N/A   Clear
1:31 PM 51.8 °F - 32.0 °F 47% 30.04 in 10.0 mi SSE 11.5 mph - N/A   Clear
1:53 PM 51.8 °F - 32.0 °F 47% 30.03 in 10.0 mi SSE 10.4 mph 17.3 mph N/A   Clear
2:12 PM 51.8 °F - 32.0 °F 47% 30.03 in 10.0 mi SSE 12.7 mph - N/A   Clear
2:32 PM 51.8 °F - 33.8 °F 50% 30.03 in 10.0 mi SSE 8.1 mph - N/A   Clear
2:53 PM 51.8 °F - 33.8 °F 50% 30.03 in 10.0 mi SSE 10.4 mph - N/A   Clear
3:11 PM 51.8 °F - 33.8 °F 50% 30.03 in 10.0 mi South 11.5 mph - N/A   Clear
3:33 PM 51.8 °F - 33.8 °F 50% 30.03 in 10.0 mi South 9.2 mph - N/A   Clear
3:53 PM 51.8 °F - 33.8 °F 50% 30.03 in 10.0 mi SSE 9.2 mph - N/A   Clear
4:13 PM 50.0 °F - 33.8 °F 54% 30.04 in 10.0 mi SSE 8.1 mph - N/A   Clear
4:53 PM 44.6 °F 40.7 °F 33.8 °F 66% 30.04 in 10.0 mi SSE 6.9 mph - N/A   Clear
5:13 PM 44.6 °F 42.2 °F 33.8 °F 66% 30.05 in 10.0 mi SE 4.6 mph - N/A   Clear
5:32 PM 44.6 °F 40.7 °F 32.0 °F 61% 30.05 in 10.0 mi SE 6.9 mph - N/A   Clear
5:52 PM 42.8 °F 38.0 °F 32.0 °F 66% 30.05 in 10.0 mi SE 8.1 mph - N/A   Clear
6:12 PM 42.8 °F 39.3 °F 33.8 °F 70% 30.05 in 10.0 mi SE 5.8 mph - N/A   Clear
6:33 PM 42.8 °F 39.3 °F 32.0 °F 66% 30.05 in 10.0 mi SE 5.8 mph - N/A   Clear
6:53 PM 42.8 °F 39.3 °F 32.0 °F 66% 30.05 in 10.0 mi SE 5.8 mph - N/A   Clear
7:13 PM 42.8 °F 39.3 °F 32.0 °F 66% 30.04 in 10.0 mi SE 5.8 mph - N/A   Clear
7:33 PM 42.8 °F 40.1 °F 32.0 °F 66% 30.04 in 10.0 mi SE 4.6 mph - N/A   Clear
7:53 PM 42.8 °F 39.3 °F 33.8 °F 70% 30.04 in 10.0 mi SSE 5.8 mph - N/A   Scattered Clouds
8:13 PM 42.8 °F 38.6 °F 33.8 °F 70% 30.03 in 10.0 mi SE 6.9 mph - N/A   Mostly Cloudy
8:32 PM 42.8 °F 39.3 °F 33.8 °F 70% 30.04 in 10.0 mi SE 5.8 mph - N/A   Mostly Cloudy
8:53 PM 42.8 °F 41.1 °F 33.8 °F 70% 30.04 in 10.0 mi SSE 3.5 mph - N/A   Mostly Cloudy
9:12 PM 41.0 °F 38.0 °F 32.0 °F 70% 30.04 in 10.0 mi SE 4.6 mph - N/A   Scattered Clouds
9:33 PM 41.0 °F 38.0 °F 32.0 °F 70% 30.04 in 10.0 mi SE 4.6 mph - N/A   Clear
9:52 PM 39.2 °F 35.9 °F 32.0 °F 75% 30.04 in 10.0 mi SSE 4.6 mph - N/A   Clear
10:12 PM 39.2 °F 34.2 °F 32.0 °F 75% 30.04 in 10.0 mi SSE 6.9 mph - N/A   Scattered Clouds
10:32 PM 42.8 °F 39.3 °F 33.8 °F 70% 30.04 in 10.0 mi SSE 5.8 mph - N/A   Scattered Clouds
11:13 PM 42.8 °F 38.6 °F 33.8 °F 70% 30.03 in 10.0 mi SSE 6.9 mph - N/A   Scattered Clouds
11:33 PM 44.6 °F 39.7 °F 33.8 °F 66% 30.03 in 10.0 mi South 9.2 mph - N/A   Scattered Clouds
11:52 PM 44.6 °F 40.7 °F 33.8 °F 66% 30.03 in 10.0 mi SSE 6.9 mph - N/A   Mostly Cloudy